Content
SEND FEEDBACK

Daily
Averages
Monthly
Summary
Canada

VICTORIA, BRITISH COLUMBIA


Home > North America > Canada > British Columbia
Elevation: 62 feet     Latitude: 48 39N     Longitude: 123 26W

WEATHER
 
SELECT A DAY
Number of Records: 195,729;   Date Range: 1/1/95 - 9/15/14
 
SHARE

PRINT THIS DATA

[ ← Previous Day ]
WEATHER ALMANAC - JULY 16, 2013
[ Next Day → ]
[ °C ]   °F
Weather ElementAverageHighLow
Temperature73.7 °F86 °F (1:00 pm)60.8 °F (1:00 am)
Dewpoint48.3 °F55.4 °F (7:00 pm)42.8 °F (2:00 pm)
Humidity41.8 %68 % (6:00 am)16 % (5:00 pm)
Barometer29.89 in29.94 in (1:00 am)29.83 in (9:00 pm)
Wind Speed6.3 mph10.4 mph (1:00 pm)
Weather ElementAverage
Visibility29.9 mi
Wind DirectionWSW (255.2 °)

Weather ElementTotal
Precipitation---
Cooling Degree Days8.4 (Base 65)
Growing Degree Days23.4 (Base 50)
Averaged from 27 records on July 16, 2013
WEATHER CONDITIONS BREAKOUT
WIND DIRECTION BREAKOUT
WEATHER BY HOUR - JULY 16, 2013
[ °C ]   °F
Local TimeTemperatureDewpointHumidityBarometerVisibilityWind DirectionWind SpeedGust SpeedPrecipitationEventsConditions
1:00 AM60.8 °F48.2 °F63 %29.94 in30.0 miWest (270°)3.5 mphClear
2:00 AM64.4 °F46.4 °F52 %29.94 in30.0 miWest (260°)5.8 mphClear
3:00 AM64.4 °F46.4 °F52 %29.93 in35.0 miWest (260°)5.8 mphClear
4:00 AM64.4 °F46.4 °F52 %29.93 in30.0 miWest (260°)5.8 mphClear
5:00 AM63.0 °F48.0 °F47 %29.93 in28.0 miWest (270°)5.8 mph
5:00 AM62.6 °F48.2 °F59 %29.93 in30.0 miWest (270°)4.6 mphClear
6:00 AM60.8 °F50.0 °F68 %29.93 in30.0 miWest (280°)5.8 mphClear
7:00 AM64.4 °F51.8 °F64 %29.94 in30.0 miWest (270°)5.8 mphClear
8:00 AM68.0 °F50.0 °F52 %29.94 in30.0 miWest (280°)5.8 mphClear
9:00 AM71.6 °F50.0 °F46 %29.93 in30.0 miWest (280°)9.2 mphClear
10:00 AM78.8 °F50.0 °F36 %29.92 in30.0 miWNW (290°)9.2 mphClear
11:00 AM81.0 °F48.0 °F21 %29.92 in28.0 miWNW (300°)8.1 mphClear
11:00 AM80.6 °F48.2 °F32 %29.91 in30.0 miNNW (330°)8.1 mphPartly Cloudy
12:00 PM82.4 °F44.6 °F26 %29.90 in30.0 miNorth (10°)9.2 mphScattered Clouds
1:00 PM86.0 °F44.6 °F23 %29.89 in30.0 miNorth (360°)10.4 mphMostly Cloudy
2:00 PM86.0 °F42.8 °F22 %29.88 in30.0 miNorth (10°)9.2 mphMostly Cloudy
3:00 PM84.2 °F44.6 °F25 %29.88 in30.0 miWNW (300°)8.1 mphMostly Cloudy
4:00 PM86.0 °F44.6 °F23 %29.86 in30.0 miWNW (300°)9.2 mphMostly Cloudy
5:00 PM83.0 °F44.0 °F16 %29.84 in28.0 miNW (310°)8.1 mphMostly Cloudy
5:00 PM82.4 °F44.6 °F26 %29.84 in30.0 miWNW (300°)8.1 mphMostly Cloudy
6:00 PM80.6 °F46.4 °F30 %29.85 in30.0 miWNW (300°)4.6 mphOvercast
7:00 PM75.2 °F55.4 °F50 %29.86 in30.0 miSSW (210°)2.3 mphMostly Cloudy
8:00 PM75.2 °F53.6 °F47 %29.84 in30.0 miNW (310°)2.3 mphMostly Cloudy
9:00 PM73.4 °F51.8 °F47 %29.83 in30.0 miWNW (290°)5.8 mphMostly Cloudy
10:00 PM75.2 °F50.0 °F41 %29.85 in30.0 miVariable2.3 mphMostly Cloudy
11:00 PM68.0 °F53.0 °F49 %29.87 in28.0 miWNW (290°)3.5 mphMostly Cloudy
11:00 PM68.0 °F53.6 °F60 %29.86 in30.0 miWest (280°)3.5 mphMostly Cloudy
Hourly data recorded from CYYJ, located miles away from Victoria, British Columbia







STORIES FROM OUR PARTNERS